Regional Weather Roundup
Issued by NWS Burlington, VT

Home | Current Version | Previous Version | Text Only | Print | Product List | Glossary On
Versions: 1 2 3 4 5 6 7 8 9 10 11 12 13 14 15 16 17 18 19 20 21 22 23 24 25 26 27 28 29 30 31 32 33 34 35 36 37 38 39 40 41 42 43 44 45 46 47 48 49 50
000
ASUS41 KBTV 241430
RWRBTV
VERMONT REGIONAL WEATHER ROUNDUP
NATIONAL WEATHER SERVICE BURLINGTON VT
1000 AM EDT FRI MAR 24 2017

NOTE: "FAIR" INDICATES FEW OR NO CLOUDS BELOW 12,000 FEET WITH NO
SIGNIFICANT WEATHER AND/OR OBSTRUCTIONS TO VISIBILITY.

* THESE REPORTS ARE NOT UNDER NWS QUALITY CONTROL AND/OR DO NOT
  REPORT WEATHER SUCH AS PRECIPITATION AND FOG.

VTZ001>019-241500-
_____VERMONT_____


CITY           SKY/WX    TMP DP  RH WIND       PRES   REMARKS
BURLINGTON     LGT SNOW  29  26  89 S12       30.25F VSB 3/4 WCI  19
MONTPELIER     LGT SNOW  24  21  88 S8        30.29F VSB 3/4 WCI  15
MORRISVILLE    SNOW      25  23  92 S8        30.26F VSB 1/2 WCI  16
ST. JOHNSBURY*   N/A     24  19  81 MISG      30.29F
LYNDONVILLE*   LGT SNOW  22  19  86 SE9       30.27F WCI  12
MIDDLEBURY*    CLOUDY    33  17  50 S6        30.24F WCI  28
RUTLAND*       CLOUDY    31  12  45 SE13G18   30.27F WCI  21
SPRINGFIELD    CLOUDY    28   9  44 CALM      30.34F
HIGHGATE*      LGT SNOW  29  26  88 S10G21    30.22F WCI  19
NEWPORT*       LGT SNOW  23  20  86 S10G16    30.24F VSB 1   WCI  13
BENNINGTON     CLOUDY    37  11  34 S15G25    30.29S WCI  28
SUTTON*          N/A     19 N/A N/A MISG        N/A
ISLAND POND*     N/A     23 N/A N/A E6          N/A  WCI  16
GALLUP MILLS*    N/A     21 N/A N/A MISG        N/A
UNION VILLAGE*   N/A     25 N/A N/A MISG        N/A
MT. MANSFIELD*   N/A     19 N/A N/A SW32G53     N/A  WCI   0

_____LAKE CHAMPLAIN_____


CITY           SKY/WX    TMP DP  RH WIND       PRES   REMARKS
BURTON ISLAND*   N/A     30  28  93 S25         N/A  WCI  16
COLCHESTER RF*   N/A     30  30 100 S33         N/A  WCI  14
DIAMOND ISL*     N/A     28  28 100 S12         N/A  WCI  18

$$

NYZ007-026>031-035-052-083-087-241500-
_____NORTHERN NEW YORK_____


CITY           SKY/WX    TMP DP  RH WIND       PRES   REMARKS
PLATTSBURGH    SNOW      29  26  89 S9        30.22F VSB 1/2 WCI  20
SARANAC LAKE   LGT SNOW  28  25  88 SW14G21   30.10F FOG     WCI  17
MASSENA        FLURRIES  32  29  88 E3        30.16F
POTSDAM*       FLURRIES  34  28  80 S3        30.15F
STARK FALLS*     N/A     28 N/A N/A S8          N/A  WCI  20
WATERTOWN      MIX PCPN  34  30  85 S7        30.12F FOG     WCI  28
FT DRUM        DRIZZLE   32  28  86 SE7       30.11F WCI  26
ALBANY         CLOUDY    36  12  37 S14       30.31F WCI  27
GLENS FALLS    CLOUDY    32  14  47 SE3       30.28F

$$
NHZ002-005-011-241500-
_____NEW HAMPSHIRE_____


CITY           SKY/WX    TMP DP  RH WIND       PRES   REMARKS
LEBANON        LGT SNOW  26  24  92 NE6       30.32F VSB 1   WCI  19
KEENE          CLOUDY    32  16  51 S7        30.36F WCI  26
MT WASHINGTON  SNOW      10  10 100 SW45G62     N/A  VSB 1/16WCI -15
PLYMOUTH       SNOW      24  21  91 E3        30.37F VSB 1/2
WHITEFIELD     LGT SNOW  24  13  62 W3        30.27F

$$

_____REGIONAL QUEBEC LOCATIONS_____


CITY           SKY/WX    TMP DP  RH WIND       PRES   REMARKS
MONTREAL       LGT SNOW  28  25  86 SE12      30.19F VSB 3/4 WCI  18
QUEBEC CITY    SNOWSHWR  21  16  79 VRB2      30.24F VSB 1
SHERBROOKE     CLOUDY    28  19  69 S3        30.22F

_____REGIONAL ONTARIO LOCATIONS_____


CITY           SKY/WX    TMP DP  RH WIND       PRES   REMARKS
OTTAWA         LGT SNOW  27  25  93 SE8       30.13F WCI  18

______KEY______
VSB  - VISIBILITY IN MILES
WCI  - WIND CHILL INDEX
HX   - HEAT INDEX
$$
NNNN




USA.gov is the U.S. government's official web portal to all federal, state and local government web resources and services.